Year,Month,Day,Hour,Minute,Value (Times are PST for temperature in C)
2020,02,08,00,00,7.40
2020,02,08,00,01,7.40
2020,02,08,00,02,7.40
2020,02,08,00,03,7.40
2020,02,08,00,04,7.40
2020,02,08,00,05,7.40
2020,02,08,00,06,7.40
2020,02,08,00,07,7.40
2020,02,08,00,08,7.40
2020,02,08,00,09,7.40
2020,02,08,00,10,7.40
2020,02,08,00,11,7.40
2020,02,08,00,12,7.40
2020,02,08,00,13,7.40
2020,02,08,00,14,7.40
2020,02,08,00,15,7.40
2020,02,08,00,16,7.40
2020,02,08,00,17,7.40
2020,02,08,00,18,7.40
2020,02,08,00,19,7.40
2020,02,08,00,20,7.30
2020,02,08,00,21,7.30
2020,02,08,00,22,7.40
2020,02,08,00,23,7.30
2020,02,08,00,24,7.30
2020,02,08,00,25,7.40
2020,02,08,00,26,7.40
2020,02,08,00,27,7.40
2020,02,08,00,28,7.40
2020,02,08,00,29,7.40
2020,02,08,00,30,7.40
2020,02,08,00,31,7.40
2020,02,08,00,32,7.40
2020,02,08,00,33,7.40
2020,02,08,00,34,7.40
2020,02,08,00,35,7.50
2020,02,08,00,36,7.50
2020,02,08,00,37,7.50
2020,02,08,00,38,7.50
2020,02,08,00,39,7.50
2020,02,08,00,40,7.50
2020,02,08,00,41,7.50
2020,02,08,00,42,7.50
2020,02,08,00,43,7.50
2020,02,08,00,44,7.50
2020,02,08,00,45,7.50
2020,02,08,00,46,7.40
2020,02,08,00,47,7.40
2020,02,08,00,48,7.40
2020,02,08,00,49,7.40
2020,02,08,00,50,7.40
2020,02,08,00,51,7.40
2020,02,08,00,52,7.40
2020,02,08,00,53,7.40
2020,02,08,00,54,7.40
2020,02,08,00,55,7.40
2020,02,08,00,56,7.30
2020,02,08,00,57,7.30
2020,02,08,00,58,7.30
2020,02,08,00,59,7.30
2020,02,08,01,00,7.30
2020,02,08,01,01,7.30
2020,02,08,01,02,7.30
2020,02,08,01,03,7.30
2020,02,08,01,04,7.30
2020,02,08,01,05,7.30
2020,02,08,01,06,7.30
2020,02,08,01,07,7.30
2020,02,08,01,08,7.30
2020,02,08,01,09,7.30
2020,02,08,01,10,7.30
2020,02,08,01,11,7.30
2020,02,08,01,12,7.30
2020,02,08,01,13,7.30
2020,02,08,01,14,7.30
2020,02,08,01,15,7.30
2020,02,08,01,16,7.30
2020,02,08,01,17,7.40
2020,02,08,01,18,7.40
2020,02,08,01,19,7.40
2020,02,08,01,20,7.40
2020,02,08,01,21,7.40
2020,02,08,01,22,7.40
2020,02,08,01,23,7.40
2020,02,08,01,24,7.40
2020,02,08,01,25,7.40
2020,02,08,01,26,7.40
2020,02,08,01,27,7.40
2020,02,08,01,28,7.40
2020,02,08,01,29,7.50
2020,02,08,01,30,7.50
2020,02,08,01,31,7.50
2020,02,08,01,32,7.50
2020,02,08,01,33,7.50
2020,02,08,01,34,7.40
2020,02,08,01,35,7.50
2020,02,08,01,36,7.50
2020,02,08,01,37,7.40
2020,02,08,01,38,7.40
2020,02,08,01,39,7.40
2020,02,08,01,40,7.40
2020,02,08,01,41,7.40
2020,02,08,01,42,7.40
2020,02,08,01,43,7.40
2020,02,08,01,44,7.40
2020,02,08,01,45,7.40
2020,02,08,01,46,7.40
2020,02,08,01,47,7.40
2020,02,08,01,48,7.30
2020,02,08,01,49,7.30
2020,02,08,01,50,7.30
2020,02,08,01,51,7.30
2020,02,08,01,52,7.30
2020,02,08,01,53,7.30
2020,02,08,01,54,7.30
2020,02,08,01,55,7.30
2020,02,08,01,56,7.30
2020,02,08,01,57,7.30
2020,02,08,01,58,7.30
2020,02,08,01,59,7.30
2020,02,08,02,00,7.30
2020,02,08,02,01,7.20
2020,02,08,02,02,7.20
2020,02,08,02,03,7.20
2020,02,08,02,04,7.20
2020,02,08,02,05,7.20
2020,02,08,02,06,7.20
2020,02,08,02,07,7.20
2020,02,08,02,08,7.20
2020,02,08,02,09,7.20
2020,02,08,02,10,7.10
2020,02,08,02,11,7.10
2020,02,08,02,12,7.00
2020,02,08,02,13,6.90
2020,02,08,02,14,6.80
2020,02,08,02,15,6.80
2020,02,08,02,16,6.70
2020,02,08,02,17,6.70
2020,02,08,02,18,6.70
2020,02,08,02,19,6.60
2020,02,08,02,20,6.60
2020,02,08,02,21,6.60
2020,02,08,02,22,6.60
2020,02,08,02,23,6.60
2020,02,08,02,24,6.60
2020,02,08,02,25,6.60
2020,02,08,02,26,6.50
2020,02,08,02,27,6.40
2020,02,08,02,28,6.40
2020,02,08,02,29,6.40
2020,02,08,02,30,6.40
2020,02,08,02,31,6.40
2020,02,08,02,32,6.40
2020,02,08,02,33,6.40
2020,02,08,02,34,6.40
2020,02,08,02,35,6.30
2020,02,08,02,36,6.30
2020,02,08,02,37,6.30
2020,02,08,02,38,6.30
2020,02,08,02,39,6.30
2020,02,08,02,40,6.30
2020,02,08,02,41,6.30
2020,02,08,02,42,6.30
2020,02,08,02,43,6.20
2020,02,08,02,44,6.20
2020,02,08,02,45,6.20
2020,02,08,02,46,6.20
2020,02,08,02,47,6.20
2020,02,08,02,48,6.20
2020,02,08,02,49,6.20
2020,02,08,02,50,6.20
2020,02,08,02,51,6.20
2020,02,08,02,52,6.20
2020,02,08,02,53,6.20
2020,02,08,02,54,6.20
2020,02,08,02,55,6.20
2020,02,08,02,56,6.20
2020,02,08,02,57,6.20
2020,02,08,02,58,6.10
2020,02,08,02,59,6.10
2020,02,08,03,00,6.10
2020,02,08,03,01,6.10
2020,02,08,03,02,6.10
2020,02,08,03,03,6.10
2020,02,08,03,04,6.10
2020,02,08,03,05,6.10
2020,02,08,03,06,6.10
2020,02,08,03,07,6.10
2020,02,08,03,08,6.00
2020,02,08,03,09,6.00
2020,02,08,03,10,6.00
2020,02,08,03,11,6.00
2020,02,08,03,12,6.00
2020,02,08,03,13,6.00
2020,02,08,03,14,6.00
2020,02,08,03,15,5.90
2020,02,08,03,16,5.90
2020,02,08,03,17,5.90
2020,02,08,03,18,5.90
2020,02,08,03,19,5.90
2020,02,08,03,20,5.80
2020,02,08,03,21,5.80
2020,02,08,03,22,5.80
2020,02,08,03,23,5.70
2020,02,08,03,24,5.70
2020,02,08,03,25,5.70
2020,02,08,03,26,5.70
2020,02,08,03,27,5.70
2020,02,08,03,28,5.70
2020,02,08,03,29,5.70
2020,02,08,03,30,5.70
2020,02,08,03,31,5.70
2020,02,08,03,32,5.70
2020,02,08,03,33,5.70
2020,02,08,03,34,5.70
2020,02,08,03,35,5.70
2020,02,08,03,36,5.70
2020,02,08,03,37,5.70
2020,02,08,03,38,5.70
2020,02,08,03,39,5.60
2020,02,08,03,40,5.60
2020,02,08,03,41,5.60
2020,02,08,03,42,5.60
2020,02,08,03,43,5.60
2020,02,08,03,44,5.60
2020,02,08,03,45,5.60
2020,02,08,03,46,5.60
2020,02,08,03,47,5.60
2020,02,08,03,48,5.60
2020,02,08,03,49,5.60
2020,02,08,03,50,5.60
2020,02,08,03,51,5.60
2020,02,08,03,52,5.60
2020,02,08,03,53,5.60
2020,02,08,03,54,5.50
2020,02,08,03,55,5.50
2020,02,08,03,56,5.50
2020,02,08,03,57,5.50
2020,02,08,03,58,5.50
2020,02,08,03,59,5.50
2020,02,08,04,00,5.40
2020,02,08,04,01,5.40
2020,02,08,04,02,5.40
2020,02,08,04,03,5.30
2020,02,08,04,04,5.30
2020,02,08,04,05,5.30
2020,02,08,04,06,5.30
2020,02,08,04,07,5.30
2020,02,08,04,08,5.30
2020,02,08,04,09,5.30
2020,02,08,04,10,5.30
2020,02,08,04,11,5.20
2020,02,08,04,12,5.20
2020,02,08,04,13,5.20
2020,02,08,04,14,5.20
2020,02,08,04,15,5.20
2020,02,08,04,16,5.20
2020,02,08,04,17,5.20
2020,02,08,04,18,5.20
2020,02,08,04,19,5.20
2020,02,08,04,20,5.20
2020,02,08,04,21,5.20
2020,02,08,04,22,5.20
2020,02,08,04,23,5.20
2020,02,08,04,24,5.20
2020,02,08,04,25,5.20
2020,02,08,04,26,5.20
2020,02,08,04,27,5.20
2020,02,08,04,28,5.20
2020,02,08,04,29,5.10
2020,02,08,04,30,5.10
2020,02,08,04,31,5.10
2020,02,08,04,32,5.10
2020,02,08,04,33,5.10
2020,02,08,04,34,5.10
2020,02,08,04,35,5.10
2020,02,08,04,36,5.10
2020,02,08,04,37,5.10
2020,02,08,04,38,5.10
2020,02,08,04,39,5.10
2020,02,08,04,40,5.10
2020,02,08,04,41,5.10
2020,02,08,04,42,5.10
2020,02,08,04,43,5.10
2020,02,08,04,44,5.20
2020,02,08,04,45,5.20
2020,02,08,04,46,5.20
2020,02,08,04,47,5.30
2020,02,08,04,48,5.30
2020,02,08,04,49,5.30
2020,02,08,04,50,5.20
2020,02,08,04,51,5.20
2020,02,08,04,52,5.10
2020,02,08,04,53,5.10
2020,02,08,04,54,5.10
2020,02,08,04,55,5.10
2020,02,08,04,56,5.10
2020,02,08,04,57,5.10
2020,02,08,04,58,5.10
2020,02,08,04,59,5.10
2020,02,08,05,00,5.10
2020,02,08,05,01,5.10
2020,02,08,05,02,5.10
2020,02,08,05,03,5.10
2020,02,08,05,04,5.10
2020,02,08,05,05,5.10
2020,02,08,05,06,5.10
2020,02,08,05,07,5.10
2020,02,08,05,08,5.10
2020,02,08,05,09,5.10
2020,02,08,05,10,5.10
2020,02,08,05,11,5.10
2020,02,08,05,12,5.10
2020,02,08,05,13,5.10
2020,02,08,05,14,5.10
2020,02,08,05,15,5.10
2020,02,08,05,16,5.10
2020,02,08,05,17,5.10
2020,02,08,05,18,5.10
2020,02,08,05,19,5.10
2020,02,08,05,20,5.00
2020,02,08,05,21,4.90
2020,02,08,05,22,4.90
2020,02,08,05,23,4.90
2020,02,08,05,24,4.90
2020,02,08,05,25,4.90
2020,02,08,05,26,4.90
2020,02,08,05,27,4.90
2020,02,08,05,28,4.90
2020,02,08,05,29,4.90
2020,02,08,05,30,4.90
2020,02,08,05,31,4.90
2020,02,08,05,32,4.90
2020,02,08,05,33,4.90
2020,02,08,05,34,4.90
2020,02,08,05,35,4.90
2020,02,08,05,36,4.90
2020,02,08,05,37,4.90
2020,02,08,05,38,4.80
2020,02,08,05,39,4.80
2020,02,08,05,40,4.80
2020,02,08,05,41,4.90
2020,02,08,05,42,4.90
2020,02,08,05,43,4.90
2020,02,08,05,44,4.90
2020,02,08,05,45,4.90
2020,02,08,05,46,4.80
2020,02,08,05,47,4.80
2020,02,08,05,48,4.80
2020,02,08,05,49,4.80
2020,02,08,05,50,4.80
2020,02,08,05,51,4.80
2020,02,08,05,52,4.80
2020,02,08,05,53,4.80
2020,02,08,05,54,4.80
2020,02,08,05,55,4.70
2020,02,08,05,56,4.70
2020,02,08,05,57,4.70
2020,02,08,05,58,4.70
2020,02,08,05,59,4.70
2020,02,08,06,00,4.60
2020,02,08,06,01,4.70
2020,02,08,06,02,4.60
2020,02,08,06,03,4.60
2020,02,08,06,04,4.60
2020,02,08,06,05,4.60
2020,02,08,06,06,4.60
2020,02,08,06,07,4.60
2020,02,08,06,08,4.60
2020,02,08,06,09,4.60
2020,02,08,06,10,4.60
2020,02,08,06,11,4.60
2020,02,08,06,12,4.70
2020,02,08,06,13,4.70
2020,02,08,06,14,4.70
2020,02,08,06,15,4.80
2020,02,08,06,16,4.80
2020,02,08,06,17,4.90
2020,02,08,06,18,4.90
2020,02,08,06,19,4.90
2020,02,08,06,20,4.90
2020,02,08,06,21,4.90
2020,02,08,06,22,4.90
2020,02,08,06,23,5.00
2020,02,08,06,24,5.10
2020,02,08,06,25,5.10
2020,02,08,06,26,5.10
2020,02,08,06,27,5.10
2020,02,08,06,28,5.10
2020,02,08,06,29,5.10
2020,02,08,06,30,5.10
2020,02,08,06,31,5.10
2020,02,08,06,32,5.10
2020,02,08,06,33,5.10
2020,02,08,06,34,5.10
2020,02,08,06,35,5.00
2020,02,08,06,36,4.90
2020,02,08,06,37,4.90
2020,02,08,06,38,4.90
2020,02,08,06,39,4.90
2020,02,08,06,40,4.90
2020,02,08,06,41,4.90
2020,02,08,06,42,4.90
2020,02,08,06,43,4.90
2020,02,08,06,44,4.80
2020,02,08,06,45,4.80
2020,02,08,06,46,4.80
2020,02,08,06,47,4.70
2020,02,08,06,48,4.70
2020,02,08,06,49,4.70
2020,02,08,06,50,4.70
2020,02,08,06,51,4.70
2020,02,08,06,52,4.60
2020,02,08,06,53,4.60
2020,02,08,06,54,4.60
2020,02,08,06,55,4.50
2020,02,08,06,56,4.40
2020,02,08,06,57,4.30
2020,02,08,06,58,4.20
2020,02,08,06,59,4.20
2020,02,08,07,00,4.10
2020,02,08,07,01,4.10
2020,02,08,07,02,4.00
2020,02,08,07,03,4.10
2020,02,08,07,04,4.10
2020,02,08,07,05,4.10
2020,02,08,07,06,4.10
2020,02,08,07,07,4.00
2020,02,08,07,08,4.00
2020,02,08,07,09,4.00
2020,02,08,07,10,4.00
2020,02,08,07,11,3.90
2020,02,08,07,12,3.90
2020,02,08,07,13,3.90
2020,02,08,07,14,3.90
2020,02,08,07,15,3.90
2020,02,08,07,16,3.90
2020,02,08,07,17,3.90
2020,02,08,07,18,3.90
2020,02,08,07,19,3.90
2020,02,08,07,20,3.80
2020,02,08,07,21,3.80
2020,02,08,07,22,3.80
2020,02,08,07,23,3.80
2020,02,08,07,24,3.80
2020,02,08,07,25,3.80
2020,02,08,07,26,3.80
2020,02,08,07,27,3.80
2020,02,08,07,28,3.80
2020,02,08,07,29,3.90
2020,02,08,07,30,3.90
2020,02,08,07,31,3.90
2020,02,08,07,32,4.00
2020,02,08,07,33,4.00
2020,02,08,07,34,4.10
2020,02,08,07,35,4.10
2020,02,08,07,36,4.10
2020,02,08,07,37,4.10
2020,02,08,07,38,4.00
2020,02,08,07,39,4.00
2020,02,08,07,40,3.90
2020,02,08,07,41,3.90
2020,02,08,07,42,3.80
2020,02,08,07,43,3.80
2020,02,08,07,44,3.80
2020,02,08,07,45,3.70
2020,02,08,07,46,3.70
2020,02,08,07,47,3.60
2020,02,08,07,48,3.60
2020,02,08,07,49,3.60
2020,02,08,07,50,3.60
2020,02,08,07,51,3.50
2020,02,08,07,52,3.50
2020,02,08,07,53,3.50
2020,02,08,07,54,3.50
2020,02,08,07,55,3.50
2020,02,08,07,56,3.50
2020,02,08,07,57,3.50
2020,02,08,07,58,3.50
2020,02,08,07,59,3.50
2020,02,08,08,00,3.40
2020,02,08,08,01,3.40
2020,02,08,08,02,3.50
2020,02,08,08,03,3.50
2020,02,08,08,04,3.50
2020,02,08,08,05,3.50
2020,02,08,08,06,3.50
2020,02,08,08,07,3.50
2020,02,08,08,08,3.50
2020,02,08,08,09,3.50
2020,02,08,08,10,3.50
2020,02,08,08,11,3.50
2020,02,08,08,12,3.50
2020,02,08,08,13,3.50
2020,02,08,08,14,3.50
2020,02,08,08,15,3.50
2020,02,08,08,16,3.50
2020,02,08,08,17,3.50
2020,02,08,08,18,3.50
2020,02,08,08,19,3.60
2020,02,08,08,20,3.60
2020,02,08,08,21,3.70
2020,02,08,08,22,3.70
2020,02,08,08,23,3.70
2020,02,08,08,24,3.70
2020,02,08,08,25,3.80
2020,02,08,08,26,3.80
2020,02,08,08,27,3.80
2020,02,08,08,28,3.80
2020,02,08,08,29,3.80
2020,02,08,08,30,3.80
2020,02,08,08,31,3.80
2020,02,08,08,32,3.80
2020,02,08,08,33,3.90
2020,02,08,08,34,3.90
2020,02,08,08,35,3.90
2020,02,08,08,36,3.80
2020,02,08,08,37,3.80
2020,02,08,08,38,3.80
2020,02,08,08,39,3.80
2020,02,08,08,40,3.80
2020,02,08,08,41,3.80
2020,02,08,08,42,3.80
2020,02,08,08,43,3.80
2020,02,08,08,44,3.80
2020,02,08,08,45,3.80
2020,02,08,08,46,3.80
2020,02,08,08,47,3.90
2020,02,08,08,48,3.90
2020,02,08,08,49,3.90
2020,02,08,08,50,3.90
2020,02,08,08,51,4.00
2020,02,08,08,52,4.00
2020,02,08,08,53,4.00
2020,02,08,08,54,4.10
2020,02,08,08,55,4.20
2020,02,08,08,56,4.20
2020,02,08,08,57,4.30
2020,02,08,08,58,4.30
2020,02,08,08,59,4.40
2020,02,08,09,00,4.50
2020,02,08,09,01,4.60
2020,02,08,09,02,4.60
2020,02,08,09,03,4.70
2020,02,08,09,04,4.70
2020,02,08,09,05,4.80
2020,02,08,09,06,4.80
2020,02,08,09,07,4.80
2020,02,08,09,08,4.90
2020,02,08,09,09,4.90
2020,02,08,09,10,4.90
2020,02,08,09,11,4.90
2020,02,08,09,12,4.90
2020,02,08,09,13,5.00
2020,02,08,09,14,5.10
2020,02,08,09,15,5.10
2020,02,08,09,16,5.20
2020,02,08,09,17,5.30
2020,02,08,09,18,5.40
2020,02,08,09,19,5.50
2020,02,08,09,20,5.60
2020,02,08,09,21,5.70
2020,02,08,09,22,5.80
2020,02,08,09,23,5.80
2020,02,08,09,24,5.90
2020,02,08,09,25,6.00
2020,02,08,09,26,6.00
2020,02,08,09,27,6.10
2020,02,08,09,28,6.20
2020,02,08,09,29,6.20
2020,02,08,09,30,6.30
2020,02,08,09,31,6.30
2020,02,08,09,32,6.40
2020,02,08,09,33,6.50
2020,02,08,09,34,6.60
2020,02,08,09,35,6.60
2020,02,08,09,36,6.70
2020,02,08,09,37,6.80
2020,02,08,09,38,6.80
2020,02,08,09,39,6.90
2020,02,08,09,40,6.90
2020,02,08,09,41,7.00
2020,02,08,09,42,7.00
2020,02,08,09,43,7.10
2020,02,08,09,44,7.10
2020,02,08,09,45,7.10
2020,02,08,09,46,7.10
2020,02,08,09,47,7.10
2020,02,08,09,48,7.10
2020,02,08,09,49,7.10
2020,02,08,09,50,7.10
2020,02,08,09,51,7.00
2020,02,08,09,52,7.10
2020,02,08,09,53,7.20
2020,02,08,09,54,7.20
2020,02,08,09,55,7.20
2020,02,08,09,56,7.20
2020,02,08,09,57,7.30
2020,02,08,09,58,7.30
2020,02,08,09,59,7.40
2020,02,08,10,00,7.50
2020,02,08,10,01,7.50
2020,02,08,10,02,7.60
2020,02,08,10,03,7.60
2020,02,08,10,04,7.70
2020,02,08,10,05,7.80
2020,02,08,10,06,7.80
2020,02,08,10,07,7.80
2020,02,08,10,08,7.80
2020,02,08,10,09,7.80
2020,02,08,10,10,7.90
2020,02,08,10,11,8.00
2020,02,08,10,12,8.10
2020,02,08,10,13,8.20
2020,02,08,10,14,8.20
2020,02,08,10,15,8.30
2020,02,08,10,16,8.40
2020,02,08,10,17,8.40
2020,02,08,10,18,8.40
2020,02,08,10,19,8.50
2020,02,08,10,20,8.60
2020,02,08,10,21,8.70
2020,02,08,10,22,8.70
2020,02,08,10,23,8.70
2020,02,08,10,24,8.60
2020,02,08,10,25,8.60
2020,02,08,10,26,8.70
2020,02,08,10,27,8.70
2020,02,08,10,28,8.70
2020,02,08,10,29,8.70
2020,02,08,10,30,8.80
2020,02,08,10,31,8.90
2020,02,08,10,32,9.00
2020,02,08,10,33,9.00
2020,02,08,10,34,9.10
2020,02,08,10,35,9.10
2020,02,08,10,36,9.10
2020,02,08,10,37,9.00
2020,02,08,10,38,8.90
2020,02,08,10,39,8.90
2020,02,08,10,40,8.90
2020,02,08,10,41,8.90
2020,02,08,10,42,8.90
2020,02,08,10,43,8.90
2020,02,08,10,44,9.00
2020,02,08,10,45,9.00
2020,02,08,10,46,9.10
2020,02,08,10,47,9.10
2020,02,08,10,48,9.10
2020,02,08,10,49,9.20
2020,02,08,10,50,9.20
2020,02,08,10,51,9.20
2020,02,08,10,52,9.30
2020,02,08,10,53,9.30
2020,02,08,10,54,9.30
2020,02,08,10,55,9.40
2020,02,08,10,56,9.50
2020,02,08,10,57,9.50
2020,02,08,10,58,9.50
2020,02,08,10,59,9.70
2020,02,08,11,00,9.70
2020,02,08,11,01,9.80
2020,02,08,11,02,9.90
2020,02,08,11,03,9.90
2020,02,08,11,04,10.00
2020,02,08,11,05,10.10
2020,02,08,11,06,10.10
2020,02,08,11,07,10.20
2020,02,08,11,08,10.20
2020,02,08,11,09,10.20
2020,02,08,11,10,10.20
2020,02,08,11,11,10.20
2020,02,08,11,12,10.20
2020,02,08,11,13,10.30
2020,02,08,11,14,10.30
2020,02,08,11,15,10.30
2020,02,08,11,16,10.20
2020,02,08,11,17,10.10
2020,02,08,11,18,10.10
2020,02,08,11,19,10.20
2020,02,08,11,20,10.10
2020,02,08,11,21,10.10
2020,02,08,11,22,10.10
2020,02,08,11,23,10.10
2020,02,08,11,24,9.90
2020,02,08,11,25,9.90
2020,02,08,11,26,9.90
2020,02,08,11,27,9.80
2020,02,08,11,28,9.80
2020,02,08,11,29,9.70
2020,02,08,11,30,9.70
2020,02,08,11,31,9.80
2020,02,08,11,32,9.80
2020,02,08,11,33,9.90
2020,02,08,11,34,9.90
2020,02,08,11,35,9.90
2020,02,08,11,36,9.90
2020,02,08,11,37,9.90
2020,02,08,11,38,9.90
2020,02,08,11,39,9.90
2020,02,08,11,40,9.90
2020,02,08,11,41,9.90
2020,02,08,11,42,9.90
2020,02,08,11,43,9.90
2020,02,08,11,44,9.90
2020,02,08,11,45,9.90
2020,02,08,11,46,9.90
2020,02,08,11,47,9.90
2020,02,08,11,48,10.00
2020,02,08,11,49,10.10
2020,02,08,11,50,10.20
2020,02,08,11,51,10.30
2020,02,08,11,52,10.30
2020,02,08,11,53,10.40
2020,02,08,11,54,10.40
2020,02,08,11,55,10.50
2020,02,08,11,56,10.70
2020,02,08,11,57,10.80
2020,02,08,11,58,10.80
2020,02,08,11,59,10.80
2020,02,08,12,00,10.80
2020,02,08,12,01,10.80
2020,02,08,12,02,10.70
2020,02,08,12,03,10.70
2020,02,08,12,04,10.70
2020,02,08,12,05,10.80
2020,02,08,12,06,10.80
2020,02,08,12,07,10.80
2020,02,08,12,08,10.80
2020,02,08,12,09,10.80
2020,02,08,12,10,10.70
2020,02,08,12,11,10.70
2020,02,08,12,12,10.60
2020,02,08,12,13,10.60
2020,02,08,12,14,10.60
2020,02,08,12,15,10.60
2020,02,08,12,16,10.60
2020,02,08,12,17,10.60
2020,02,08,12,18,10.70
2020,02,08,12,19,10.90
2020,02,08,12,20,11.00
2020,02,08,12,21,11.10
2020,02,08,12,22,11.10
2020,02,08,12,23,11.10
2020,02,08,12,24,11.10
2020,02,08,12,25,11.10
2020,02,08,12,26,11.10
2020,02,08,12,27,11.20
2020,02,08,12,28,11.30
2020,02,08,12,29,11.40
2020,02,08,12,30,11.40
2020,02,08,12,31,11.40
2020,02,08,12,32,11.40
2020,02,08,12,33,11.30
2020,02,08,12,34,11.20
2020,02,08,12,35,11.10
2020,02,08,12,36,11.00
2020,02,08,12,37,10.80
2020,02,08,12,38,10.60
2020,02,08,12,39,10.50
2020,02,08,12,40,10.40
2020,02,08,12,41,10.30
2020,02,08,12,42,10.20
2020,02,08,12,43,10.10
2020,02,08,12,44,10.10
2020,02,08,12,45,10.00
2020,02,08,12,46,9.90
2020,02,08,12,47,9.90
2020,02,08,12,48,10.00
2020,02,08,12,49,10.10
2020,02,08,12,50,10.10
2020,02,08,12,51,10.20
2020,02,08,12,52,10.30
2020,02,08,12,53,10.40
2020,02,08,12,54,10.50
2020,02,08,12,55,10.60
2020,02,08,12,56,10.60
2020,02,08,12,57,10.50
2020,02,08,12,58,10.40
2020,02,08,12,59,10.20
2020,02,08,13,00,10.20
2020,02,08,13,01,10.10
2020,02,08,13,02,10.10
2020,02,08,13,03,10.10
2020,02,08,13,04,9.90
2020,02,08,13,05,9.90
2020,02,08,13,06,9.90
2020,02,08,13,07,9.90
2020,02,08,13,08,9.90
2020,02,08,13,09,9.90
2020,02,08,13,10,10.00
2020,02,08,13,11,10.10
2020,02,08,13,12,10.20
2020,02,08,13,13,10.30
2020,02,08,13,14,10.40
2020,02,08,13,15,10.60
2020,02,08,13,16,10.70
2020,02,08,13,17,10.80
2020,02,08,13,18,10.90
2020,02,08,13,19,11.00
2020,02,08,13,20,11.10
2020,02,08,13,21,11.10
2020,02,08,13,22,11.10
2020,02,08,13,23,11.10
2020,02,08,13,24,11.10
2020,02,08,13,25,11.10
2020,02,08,13,26,11.10
2020,02,08,13,27,11.00
2020,02,08,13,28,10.90
2020,02,08,13,29,10.90
2020,02,08,13,30,11.00
2020,02,08,13,31,11.10
2020,02,08,13,32,11.10
2020,02,08,13,33,11.10
2020,02,08,13,34,11.00
2020,02,08,13,35,10.90
2020,02,08,13,36,10.90
2020,02,08,13,37,10.90
2020,02,08,13,38,10.90
2020,02,08,13,39,10.90
2020,02,08,13,40,10.90
2020,02,08,13,41,10.90
2020,02,08,13,42,10.90
2020,02,08,13,43,10.80
2020,02,08,13,44,10.70
2020,02,08,13,45,10.60
2020,02,08,13,46,10.60
2020,02,08,13,47,10.60
2020,02,08,13,48,10.60
2020,02,08,13,49,10.60
2020,02,08,13,50,10.60
2020,02,08,13,51,10.60
2020,02,08,13,52,10.60
2020,02,08,13,53,10.60
2020,02,08,13,54,10.50
2020,02,08,13,55,10.30
2020,02,08,13,56,10.20
2020,02,08,13,57,10.20
2020,02,08,13,58,10.20
2020,02,08,13,59,10.10
2020,02,08,14,00,10.00
2020,02,08,14,01,10.00
2020,02,08,14,02,9.90
2020,02,08,14,03,9.90
2020,02,08,14,04,9.80
2020,02,08,14,05,9.80
2020,02,08,14,06,9.80
2020,02,08,14,07,9.80
2020,02,08,14,08,9.70
2020,02,08,14,09,9.70
2020,02,08,14,10,9.70
2020,02,08,14,11,9.70
2020,02,08,14,12,9.70
2020,02,08,14,13,9.70
2020,02,08,14,14,9.70
2020,02,08,14,15,9.70
2020,02,08,14,16,9.70
2020,02,08,14,17,9.70
2020,02,08,14,18,9.80
2020,02,08,14,19,9.90
2020,02,08,14,20,9.90
2020,02,08,14,21,10.00
2020,02,08,14,22,10.10
2020,02,08,14,23,10.10
2020,02,08,14,24,10.10
2020,02,08,14,25,10.10
2020,02,08,14,26,10.10
2020,02,08,14,27,10.10
2020,02,08,14,28,10.10
2020,02,08,14,29,10.10
2020,02,08,14,30,10.10
2020,02,08,14,31,10.10
2020,02,08,14,32,9.90
2020,02,08,14,33,9.90
2020,02,08,14,34,9.90
2020,02,08,14,35,9.90
2020,02,08,14,36,9.80
2020,02,08,14,37,9.80
2020,02,08,14,38,9.80
2020,02,08,14,39,9.80
2020,02,08,14,40,9.70
2020,02,08,14,41,9.70
2020,02,08,14,42,9.80
2020,02,08,14,43,9.80
2020,02,08,14,44,9.90
2020,02,08,14,45,9.90
2020,02,08,14,46,9.90
2020,02,08,14,47,9.90
2020,02,08,14,48,9.90
2020,02,08,14,49,10.00
2020,02,08,14,50,10.10
2020,02,08,14,51,10.10
2020,02,08,14,52,10.10
2020,02,08,14,53,10.10
2020,02,08,14,54,10.10
2020,02,08,14,55,10.10
2020,02,08,14,56,10.10
2020,02,08,14,57,10.20
2020,02,08,14,58,10.30
2020,02,08,14,59,10.40
2020,02,08,15,00,10.50
2020,02,08,15,01,10.60
2020,02,08,15,02,10.60
2020,02,08,15,03,10.60
2020,02,08,15,04,10.60
2020,02,08,15,05,10.40
2020,02,08,15,06,10.40
2020,02,08,15,07,10.40
2020,02,08,15,08,10.40
2020,02,08,15,09,10.40
2020,02,08,15,10,10.40
2020,02,08,15,11,10.30
2020,02,08,15,12,10.30
2020,02,08,15,13,10.20
2020,02,08,15,14,10.20
2020,02,08,15,15,10.10
2020,02,08,15,16,10.10
2020,02,08,15,17,10.10
2020,02,08,15,18,10.10
2020,02,08,15,19,10.10
2020,02,08,15,20,10.10
2020,02,08,15,21,10.10
2020,02,08,15,22,10.10
2020,02,08,15,23,10.10
2020,02,08,15,24,10.10
2020,02,08,15,25,10.10
2020,02,08,15,26,10.10
2020,02,08,15,27,10.10
2020,02,08,15,28,10.10
2020,02,08,15,29,10.10
2020,02,08,15,30,10.10
2020,02,08,15,31,10.10
2020,02,08,15,32,10.10
2020,02,08,15,33,10.10
2020,02,08,15,34,10.10
2020,02,08,15,35,10.10
2020,02,08,15,36,10.10
2020,02,08,15,37,10.00
2020,02,08,15,38,9.90
2020,02,08,15,39,9.90
2020,02,08,15,40,9.90
2020,02,08,15,41,9.90
2020,02,08,15,42,9.90
2020,02,08,15,43,9.90
2020,02,08,15,44,9.90
2020,02,08,15,45,9.90
2020,02,08,15,46,10.00
2020,02,08,15,47,10.10
2020,02,08,15,48,10.10
2020,02,08,15,49,10.10
2020,02,08,15,50,10.10
2020,02,08,15,51,10.10
2020,02,08,15,52,10.10
2020,02,08,15,53,10.10
2020,02,08,15,54,10.20
2020,02,08,15,55,10.20
2020,02,08,15,56,10.20
2020,02,08,15,57,10.10
2020,02,08,15,58,10.10
2020,02,08,15,59,10.00
2020,02,08,16,00,9.90
2020,02,08,16,01,9.90
2020,02,08,16,02,9.80
2020,02,08,16,03,9.70
2020,02,08,16,04,9.70
2020,02,08,16,05,9.70
2020,02,08,16,06,9.70
2020,02,08,16,07,9.60
2020,02,08,16,08,9.60
2020,02,08,16,09,9.60
2020,02,08,16,10,9.60
2020,02,08,16,11,9.50
2020,02,08,16,12,9.50
2020,02,08,16,13,9.50
2020,02,08,16,14,9.40
2020,02,08,16,15,9.40
2020,02,08,16,16,9.40
2020,02,08,16,17,9.40
2020,02,08,16,18,9.40
2020,02,08,16,19,9.30
2020,02,08,16,20,9.30
2020,02,08,16,21,9.30
2020,02,08,16,22,9.30
2020,02,08,16,23,9.20
2020,02,08,16,24,9.20
2020,02,08,16,25,9.20
2020,02,08,16,26,9.20
2020,02,08,16,27,9.20
2020,02,08,16,28,9.20
2020,02,08,16,29,9.20
2020,02,08,16,30,9.20
2020,02,08,16,31,9.10
2020,02,08,16,32,9.10
2020,02,08,16,33,9.10
2020,02,08,16,34,9.00
2020,02,08,16,35,9.00
2020,02,08,16,36,9.00
2020,02,08,16,37,9.00
2020,02,08,16,38,9.00
2020,02,08,16,39,8.90
2020,02,08,16,40,8.90
2020,02,08,16,41,8.90
2020,02,08,16,42,8.90
2020,02,08,16,43,8.80
2020,02,08,16,44,8.80
2020,02,08,16,45,8.70
2020,02,08,16,46,8.70
2020,02,08,16,47,8.70
2020,02,08,16,48,8.70
2020,02,08,16,49,8.70
2020,02,08,16,50,8.70
2020,02,08,16,51,8.70
2020,02,08,16,52,8.70
2020,02,08,16,53,8.60
2020,02,08,16,54,8.60
2020,02,08,16,55,8.60
2020,02,08,16,56,8.60
2020,02,08,16,57,8.60
2020,02,08,16,58,8.60
2020,02,08,16,59,8.50
2020,02,08,17,00,8.50
2020,02,08,17,01,8.50
2020,02,08,17,02,8.40
2020,02,08,17,03,8.40
2020,02,08,17,04,8.40
2020,02,08,17,05,8.30
2020,02,08,17,06,8.30
2020,02,08,17,07,8.20
2020,02,08,17,08,8.20
2020,02,08,17,09,8.20
2020,02,08,17,10,8.10
2020,02,08,17,11,8.10
2020,02,08,17,12,8.10
2020,02,08,17,13,8.00
2020,02,08,17,14,8.00
2020,02,08,17,15,7.90
2020,02,08,17,16,7.90
2020,02,08,17,17,7.80
2020,02,08,17,18,7.80
2020,02,08,17,19,7.80
2020,02,08,17,20,7.80
2020,02,08,17,21,7.80
2020,02,08,17,22,7.70
2020,02,08,17,23,7.70
2020,02,08,17,24,7.70
2020,02,08,17,25,7.60
2020,02,08,17,26,7.60
2020,02,08,17,27,7.60
2020,02,08,17,28,7.50
2020,02,08,17,29,7.50
2020,02,08,17,30,7.40
2020,02,08,17,31,7.40
2020,02,08,17,32,7.40
2020,02,08,17,33,7.30
2020,02,08,17,34,7.30
2020,02,08,17,35,7.30
2020,02,08,17,36,7.30
2020,02,08,17,37,7.20
2020,02,08,17,38,7.20
2020,02,08,17,39,7.20
2020,02,08,17,40,7.10
2020,02,08,17,41,7.10
2020,02,08,17,42,7.10
2020,02,08,17,43,7.10
2020,02,08,17,44,7.10
2020,02,08,17,45,7.00
2020,02,08,17,46,7.00
2020,02,08,17,47,7.00
2020,02,08,17,48,7.00
2020,02,08,17,49,7.00
2020,02,08,17,50,6.90
2020,02,08,17,51,6.90
2020,02,08,17,52,6.90
2020,02,08,17,53,6.90
2020,02,08,17,54,6.90
2020,02,08,17,55,6.90
2020,02,08,17,56,6.80